« Back
NWS Peachtree City, Ga » Text Product » GA Regional Weather Roundup


Printer-friendly Version
Current Version              Previous Versions:   1  2  3  4  5  6  7  8  9  

Regional Weather Roundup

170
ASUS42 KFFC 270803
RWRGA
WEATHER ROUNDUP FOR GEORGIA
NATIONAL WEATHER SERVICE PEACHTREE CITY GA
300 AM EST THU NOV 27 2014

NOTE: "FAIR" INDICATES FEW OR NO CLOUDS BELOW 12,000 FEET WITH NO
SIGNIFICANT WEATHER AND/OR OBSTRUCTIONS TO VISIBILITY.

* = USE WITH CAUTION. THE STATIONS MARKED WITH AN ASTERISK MAY NOT
REPORT WEATHER SUCH AS PRECIPITATION, FOG, OR THUNDER AND ARE NOT
QUALITY CONTROLLED BY NWS.

THE REMARK "TC" DENOTES TEMPERATURE READING IN DEGREES CELSIUS.

GAZ001>058-270900-
NORTH GEORGIA

CITY           SKY/WX    TMP DP  RH WIND       PRES   REMARKS
ATLANTA        PTCLDY    46  22  38 W13       30.10R
ATHENS         CLEAR     42  30  62 SW6       30.05R
CHAMBLEE       CLEAR     44  24  45 W13       30.08R
PEACHTREE CITY CLEAR     46  26  45 W7        30.13R
ROME           MOCLDY    44  31  60 W12       30.12R
WEST ATLANTA   FAIR      45  23  42 W8        30.10S
GAINESVILLE    CLEAR     43  26  51 W13G23    30.05R
CARTERSVILLE   CLEAR     43  29  57 CALM      30.12R


CITY           SKY/WX    TMP DP  RH WIND       PRES   REMARKS
DALTON*        CLOUDY    43  32  65 NW6       30.10R
MARIETTA       CLEAR     42  27  55 W12       30.09R
$$

GAZ059>098-102>109-270900-
CENTRAL GEORGIA

CITY           SKY/WX    TMP DP  RH WIND       PRES   REMARKS
AUGUSTA-BUSH   PTCLDY    42  31  64 SW8       30.08S
AUGUSTA-DANIEL PTCLDY    46  31  55 SW7       30.06F
COLUMBUS       CLEAR     47  32  56 NW10      30.16R
MACON          CLEAR     45  33  63 W7        30.13R
ROBINS AFB     CLEAR     48  34  57 W9        30.13R


CITY           SKY/WX    TMP DP  RH WIND       PRES   REMARKS
LAGRANGE*      CLEAR     47  30  53 NW6       30.15R
SYLVANIA*      CLEAR     45  37  73 CALM      30.11F
MILLEDGEVILLE* CLEAR     46  36  66 CALM      30.10R
$$

GAZ099>101-110>166-270900-
SOUTH GEORGIA

CITY           SKY/WX    TMP DP  RH WIND       PRES   REMARKS
SAVANNAH       CLEAR     44  35  70 S7        30.14F
VALDOSTA       CLEAR     41  37  86 S3        30.18F
ALMA           CLEAR     42  35  76 SW6       30.15F
ST SIMONS      CLEAR     46  37  71 SW6       30.18S
FT STEWART     CLEAR     42  36  80 S2        30.14S
ALBANY         CLEAR     46  39  76 SW5       30.20R
HUNTER AFB     CLEAR     44  36  73 SW7       30.12F
MOODY AFB      CLEAR     47  36  65 S5        30.17S
BRUNSWICK      CLEAR     45  36  70 SW6       30.19R


CITY           SKY/WX    TMP DP  RH WIND       PRES   REMARKS
BAINBRIDGE*    CLEAR     52  46  82 W8        30.19R
MOULTRIE*      CLEAR     46  41  81 SW6       30.17F
VIDALIA*       CLEAR     43  37  81 SW7       30.13R
WAYCROSS*      CLEAR     45  39  80 SW6       30.18R
DOUGLAS*       CLEAR     45  36  70 SW5       30.17F
$$



USA.gov is the U.S. government's official web portal to all federal, state and local government web resources and services.